Location: Brede
(50.9167°N, 0.6000°E)
Time: 21:52:52
(UTC+00:00)

Explorer 7 - Pass Details

Date: 02 August 2021
Orbit: 484 x 676 km, 50.3° (Epoch: 17 September)

Event Time Altitude Azimuth Distance (km) Brightness Sun altitude
Exits shadow 03:40:01 - 188° (S) 2,429 9.7 -6.7°
Reaches altitude 10° 03:43:09 10° 156° (SSE) 1,680 9.2 -6.3°
Maximum altitude 03:44:25 11° 136° (SE) 1,601 9.3 -6.2°
Drops below altitude 10° 03:45:43 10° 116° (ESE) 1,703 9.7 -6.0°
Sets 03:49:18 0° 82° (E) 2,631 11.5 -5.5°
